Jacksonville, FL

5:22 PM EDT on August 03, 2015 (GMT -0400)
Mayport Naval Station / Adm. David L. McDonald Field | | Change Station
CLOSE
Current Station
Airport
Location: Mayport NS,
Elevation: 16 ft
Nearby Weather Stations

Elev 16 ft 30.39 °N, 81.42 °W | Updated 15 minutes ago

Thunderstorm
Thunderstorm
80 °F
Feels Like 86 °F
N
14
Wind Variable Wind from SW

Today
High -- | Low -- °F
--% Chance of Precip.
Yesterday
High -- | Low -- °F
Precip. -- in
6:45 AM 8:18 PM
Waning Gibbous, 84% visible
Pressure 29.86 in
Visibility 1.0 miles
Clouds Few 700 ft
Mostly Cloudy 1500 ft
Overcast 5500 ft
Heat Index 86 °F
Dew Point 77 °F
Humidity 90%
Rainfall 0.14 in
Snow Depth Not available.
UV 2 out of 12
Pollen 2.50 out of 12
Air Quality Not available.
Flu Activity Not available.
SPECI KNRB 032107Z COR 22012KT 1SM +TSRA BR FEW007 BKN015CB OVC055 27/25 A2986 RMK AO2 RAB03 TSE01B02 FRQ LTGICCG VC NE TS NE MOV NE T1 SET P0004 T02670250 $

More Conditions Fewer Conditions

Pressure 29.86 in
Visibility 1.0 miles
Clouds Few 700 ft
Mostly Cloudy 1500 ft
Overcast 5500 ft
Heat Index 86 °F
Dew Point 77 °F
Humidity 90%
Rainfall 0.14 in
Snow Depth Not available.
UV 2 out of 12
Pollen 2.50 out of 12
Air Quality Not available.
Flu Activity Not available.
SPECI KNRB 032107Z COR 22012KT 1SM +TSRA BR FEW007 BKN015CB OVC055 27/25 A2986 RMK AO2 RAB03 TSE01B02 FRQ LTGICCG VC NE TS NE MOV NE T1 SET P0004 T02670250 $

More Conditions Fewer Conditions

10-Day Weather Forecast

×

Almanac

Astronomy

Aug. 03, 2015 Rise Set
Actual Time
Civil Twilight
Nautical Twilight
Astronomical Twilight
Moon
Length of Visible Light
Length of Day
Tomorrow will be .
, % of the Moon is Illuminated

Today's Extremes

State Highs State Lows

Community

WunderPhotos

Upload Photos

1,843,770 photos uploaded!

WunderBlogs® & News

Nearby

Air Quality

  Air Quality AQ Index Pollutant
Not available.

Snow Depth

Station Depth Elevation

Earthquake Activity

City Distance Mag. Time & Date
Minimum magnitude displayed is 2.5.

Coastal Water Temperatures

Place Temperature

Stations

Nearby Weather Stations

Station Location Temp. Windchill Dew Point Humidity Wind Precip. Elev Updated Type